Location: Caltech
(34.1382°N, 118.1253°W)
Time: 03:29:55
(UTC-08:00)

Cosmos 1937 Rocket - Visible Passes

Search period start: 20 December 2014 00:00
Search period end: 30 December 2014 00:00
Orbit: 747 x 782 km, 74.0° (Epoch: 19 December)

Date Brightness Start Highest point End Pass type
(mag) Time Alt. Az. Time Alt. Az. Time Alt. Az.
20 Dec 4.1 05:56:16 10° S 06:01:29 63° ESE 06:06:44 10° NNE visible
21 Dec 5.3 05:18:52 10° SSE 05:23:34 34° E 05:28:18 10° NE visible
21 Dec 6.4 17:32:42 10° NW 17:36:24 20° W 17:40:04 10° SW visible
22 Dec 6.3 04:42:13 10° SE 04:45:45 18° E 04:49:18 10° NE visible
22 Dec 3.9 06:22:17 10° SW 06:27:19 43° WNW 06:32:23 10° N visible
23 Dec 3.5 05:43:55 10° SSW 05:49:13 80° WNW 05:54:33 10° NNE visible
24 Dec 4.2 05:06:03 10° S 05:11:13 55° ESE 05:16:24 10° NNE visible
24 Dec 6.8 17:22:10 10° WNW 17:23:53 12° W 17:25:36 10° WSW visible
25 Dec 5.4 04:28:46 10° SSE 04:33:19 30° E 04:37:52 10° NE visible
25 Dec 4.4 06:10:43 10° WSW 06:15:12 28° WNW 06:19:43 10° N visible
26 Dec 6.2 03:52:22 10° SE 03:55:31 16° E 03:58:39 10° ENE visible
26 Dec 3.7 05:31:52 10° SW 05:37:00 49° WNW 05:42:09 10° N visible
27 Dec 3.4 04:53:36 10° SSW 04:58:55 90° W 05:04:14 10° NNE visible
28 Dec 4.3 04:15:51 10° S 04:20:56 49° ESE 04:26:01 10° NNE visible
28 Dec 4.8 05:59:38 10° WSW 06:03:09 18° WNW 06:06:41 10° NNW visible
29 Dec 5.9 03:45:39 18° ENE 03:45:39 18° ENE 03:47:23 10° NE visible
29 Dec 4.4 05:26:01 28° NW 05:26:01 28° NW 05:29:31 10° N visible
